Tracking 31027 objects as of 19-Jul-2025
HD Live streaming from Space Station
objects crossing your sky now

CZ-3A DEB

Track CZ-3A DEB now!


NORAD ID: 40813
Int'l Code: 2007-003AS
Perigee: 634.2 km
Apogee: 45,517.9 km
Inclination: 26.0 °
Period: 838.1 minutes
Semi major axis: 29447 km
RCS: Unknown
Launch date: February 2, 2007
Source: People's Republic of China (PRC)
Launch site: Xichang Space Center, China (XSC)

Note: This is SATELLITE DEBRIS
Your satellite tracking list
STARLINK-31009
Track 1 satellite(s)




NASA's NSSDC Master Catalog

Two Line Element Set (TLE):
1 40813U 07003AS  25198.26666889  .00000216  00000-0  52715-2 0  9993
2 40813  25.9656 145.3359 7621092  52.2318 354.6697  1.71807054 78692
Source of the keplerian elements: AFSPC